Temperature
11 11 11 11 11 11 11 11 11 11 11 10 10 10 10 10 10 10 10 10 10 10 10 9 9 8 8 7 6 6 5 5 4 4 4 4 4 4 4 3 3 3 3
10 10 11 11 10 10 10 10 10 10 10 10 10 10 10 9 9 10 10 10 10 9 9 9 8 7 7 6 5 5 4 4 4 3 3 3 3 3 3 3 3 3 2
9 10 10 10 10 10 9 9 9 9 9 9 9 9 9 9 9 9 9 9 9 8 8 8 7 6 5 5 5 4 4 3 3 3 3 3 3 3 2 2 2 2 2
9 9 9 9 9 9 9 9 8 8 8 8 8 8 8 8 8 8 8 8 8 8 7 7 6 5 4 4 3 3 3 3 3 2 2 2 2 2 2 2 2 2 1
8 8 8 8 8 8 8 8 8 8 8 8 8 8 8 8 8 8 8 7 7 7 6 5 5 4 3 3 3 3 2 2 2 2 2 2 2 2 2 2 1 1 1
7 7 7 7 7 7 7 7 7 7 7 7 7 7 7 7 7 7 7 7 6 6 5 4 4 3 3 2 2 2 2 2 2 2 1 1 1 1 1 1 1 1 0
6 6 6 6 7 7 7 7 6 6 6 6 6 6 6 6 6 6 6 6 6 5 4 4 3 2 2 2 1 1 1 1 1 1 1 1 1 1 1 1 0 0 -0
5 5 5 5 6 6 6 6 6 6 6 6 6 6 6 6 6 6 5 5 5 4 3 3 2 2 1 1 1 1 1 1 1 1 1 1 1 0 0 0 -0 -0 -0
4 4 4 4 5 5 5 5 5 5 5 5 5 5 5 5 5 5 4 4 4 3 3 2 2 1 1 1 0 0 0 1 1 1 1 1 1 0 0 -0 -0 -0 -1
3 3 3 3 3 4 4 4 4 4 4 4 4 4 4 4 4 4 3 3 3 2 2 2 1 1 1 0 0 0 0 0 0 0 0 0 0 -0 -0 -0 -1 -1 -1
2 2 2 2 2 2 3 3 3 3 3 3 3 3 3 3 3 3 3 2 2 2 1 1 1 1 0 0 0 -0 -0 -0 -0 -0 -0 -1 -1 -1 -1 -1 -1 -1 -1
1 1 1 1 1 1 2 2 2 2 2 2 3 2 2 2 2 2 2 2 1 1 1 1 1 0 0 -0 -0 -0 -1 -1 -1 -1 -1 -1 -1 -1 -1 -1 -1 -1 -1
0 0 0 0 0 0 0 1 1 1 1 1 2 2 2 2 2 2 1 1 1 0 0 0 -0 -0 -0 -1 -1 -1 -1 -1 -1 -1 -1 -1 -1 -1 -1 -1 -1 -1 -1
-1 -1 -1 -1 -0 -0 -0 -0 0 1 1 1 1 1 2 2 1 1 1 0 0 -0 -0 -1 -1 -1 -1 -1 -1 -2 -1 -1 -1 -1 -2 -2 -2 -1 -1 -2 -2 -2 -2
-2 -2 -1 -1 -1 -1 -1 -1 -0 -0 0 0 0 1 1 1 1 1 1 0 0 -0 -1 -1 -1 -1 -1 -2 -2 -2 -2 -2 -2 -2 -2 -2 -2 -2 -2 -2 -2 -2 -2
-3 -3 -3 -3 -3 -2 -2 -2 -1 -1 -1 -0 -0 -0 0 0 0 0 0 -0 -0 -1 -1 -1 -1 -1 -1 -1 -1 -1 -1 -1 -1 -2 -2 -2 -2 -2 -2 -2 -2 -2 -3
-3 -4 -4 -4 -3 -3 -3 -3 -2 -2 -1 -1 -1 -1 -0 -0 -0 -0 -0 -1 -1 -1 -1 -1 -1 -1 -1 -1 -1 -1 -1 -1 -1 -2 -2 -2 -2 -2 -2 -2 -2 -3 -3
-4 -4 -4 -4 -4 -4 -4 -4 -4 -3 -2 -2 -1 -1 -1 -1 -1 -1 -1 -1 -1 -2 -1 -1 -1 -1 -1 -1 -1 -1 -1 -1 -2 -2 -2 -2 -2 -2 -2 -2 -2 -3 -3
-5 -5 -5 -5 -5 -5 -5 -5 -4 -4 -4 -3 -2 -2 -1 -1 -1 -1 -1 -1 -1 -1 -1 -1 -1 -1 -1 -1 -1 -1 -1 -1 -1 -2 -2 -2 -2 -2 -2 -2 -3 -3 -3
-5 -5 -5 -5 -5 -5 -5 -5 -5 -5 -4 -4 -3 -3 -2 -2 -2 -2 -2 -1 -1 -1 -1 -1 -1 -1 -1 -1 -1 -1 -1 -1 -2 -2 -2 -2 -2 -2 -2 -3 -3 -3 -3
-5 -5 -6 -6 -6 -6 -6 -6 -5 -5 -5 -4 -4 -3 -3 -3 -2 -2 -2 -2 -1 -1 -1 -1 -1 -1 -1 -1 -1 -1 -1 -2 -1 -1 -2 -2 -2 -2 -2 -3 -3 -4 -4
-6 -6 -6 -6 -6 -6 -6 -6 -6 -5 -5 -5 -4 -4 -3 -3 -3 -2 -2 -2 -1 -1 -1 -1 -1 -1 -1 -1 -1 -1 -2 -2 -2 -2 -2 -2 -2 -2 -3 -3 -3 -4 -4
-6 -6 -6 -6 -6 -6 -6 -6 -6 -6 -6 -5 -5 -4 -4 -3 -3 -3 -2 -2 -2 -2 -1 -1 -1 -1 -1 -1 -1 -1 -1 -1 -1 -1 -2 -2 -2 -3 -3 -3 -4 -4 -4
-7 -7 -7 -7 -7 -6 -7 -6 -6 -6 -6 -5 -5 -5 -4 -4 -4 -3 -3 -3 -2 -2 -2 -2 -2 -1 -1 -1 -1 -1 -1 -1 -2 -2 -2 -2 -2 -3 -3 -3 -4 -4 -5
-7 -7 -7 -7 -7 -7 -7 -7 -6 -6 -6 -6 -5 -5 -5 -4 -4 -4 -3 -3 -3 -2 -2 -2 -2 -2 -2 -2 -2 -2 -2 -2 -2 -2 -2 -3 -3 -3 -3 -4 -4 -5 -5
-8 -8 -8 -8 -8 -7 -7 -7 -7 -6 -6 -6 -6 -5 -5 -5 -4 -4 -4 -3 -3 -3 -3 -2 -2 -2 -2 -2 -2 -2 -2 -2 -2 -3 -3 -3 -3 -4 -4 -4 -5 -5 -6
Wind_Speed
4 3 2 2 1 1 3 4 5 6 7 9 9 9 8 8 8 7 7 7 7 6 6 6 5 4 4 3 3 3 4 4 6 2 1 3 4 5 4 3 3 2 3
5 4 3 2 1 1 2 3 4 6 6 7 8 8 8 8 8 7 7 7 7 7 7 6 6 5 5 4 4 4 4 4 4 4 2 3 3 5 4 3 2 2 3
6 5 3 3 2 1 2 2 4 5 6 7 7 8 8 8 8 7 7 7 7 7 7 7 7 6 6 4 4 4 3 3 3 3 2 2 2 3 3 2 2 2 2
6 5 4 3 3 3 2 3 4 5 6 7 7 8 8 8 7 7 7 7 7 6 6 6 6 6 6 5 4 4 3 4 4 3 3 2 2 3 3 3 3 2 1
7 6 5 4 3 3 3 4 5 6 6 7 7 7 7 7 7 8 8 7 7 7 6 6 5 4 4 4 4 4 4 4 4 4 3 3 3 3 4 4 3 3 2
7 7 6 5 4 4 4 4 5 6 7 8 8 9 9 7 9 11 8 8 7 7 7 6 5 5 6 6 5 4 3 4 5 4 4 5 5 4 4 4 4 3 3
8 7 7 6 6 5 4 5 7 7 8 8 9 9 9 9 12 13 11 8 7 7 7 6 5 6 7 6 6 5 3 1 2 4 5 5 5 5 5 5 5 3 2
9 8 8 7 7 6 6 7 7 7 8 9 9 10 9 10 14 14 13 9 7 7 7 7 7 7 7 7 6 5 4 2 2 3 3 3 2 4 5 4 4 4 3
9 9 9 9 9 8 8 8 7 7 8 8 9 10 10 11 14 15 14 8 7 8 8 8 8 8 10 11 8 6 5 4 3 2 2 3 4 5 5 4 5 4 3
10 10 10 9 9 9 9 8 7 7 8 8 8 9 10 11 14 17 16 8 8 8 7 8 10 10 12 13 9 8 7 6 5 5 5 5 6 6 5 4 4 4 2
11 11 11 10 10 10 9 8 7 7 7 8 9 9 10 12 14 18 18 10 9 9 8 8 8 14 14 14 11 8 7 6 6 6 5 5 4 4 4 3 2 2 2
11 11 11 10 9 8 9 8 8 8 8 9 9 9 9 10 12 16 20 17 13 10 9 8 9 15 15 15 11 9 9 9 6 6 5 5 5 4 3 3 3 3 2
12 12 11 11 10 9 9 9 8 8 8 8 8 9 8 8 10 16 19 20 18 11 8 10 12 15 14 12 13 13 11 8 7 7 6 5 5 4 4 4 4 4 3
12 12 11 11 10 9 8 8 7 8 8 8 8 9 8 8 8 9 11 13 16 12 8 10 13 14 12 10 11 11 9 8 8 7 6 5 5 5 5 5 4 4 3
12 12 11 10 10 10 9 9 9 10 10 10 9 9 9 10 12 16 12 11 11 11 10 7 8 9 10 10 9 9 9 9 9 7 6 6 6 6 6 5 4 5 4
11 11 10 9 9 9 9 10 11 13 15 17 15 12 11 13 14 18 20 19 18 18 12 9 10 11 11 11 11 10 10 10 9 8 7 7 7 7 7 6 6 6 6
12 12 10 9 9 9 9 9 10 10 13 15 16 16 15 14 15 17 20 21 21 20 12 10 11 11 11 11 11 11 11 10 9 9 8 8 8 7 7 7 7 7 7
12 12 11 10 10 9 9 9 9 9 9 8 10 15 16 16 15 16 18 17 14 15 11 11 11 11 11 11 11 11 10 10 9 10 9 9 9 8 8 8 8 9 7
11 10 10 10 10 10 9 9 9 10 9 8 7 8 12 13 14 16 16 11 11 12 12 12 11 11 11 11 10 10 10 10 10 10 10 10 10 9 9 9 9 11 9
10 12 12 10 10 10 9 9 9 9 9 8 8 7 6 6 6 8 10 9 10 11 11 12 11 11 11 11 10 10 10 10 11 10 10 10 10 10 10 11 9 9 9
10 10 12 11 9 9 9 9 9 9 9 8 8 8 10 7 7 8 8 9 10 11 11 11 11 11 11 10 10 11 12 10 10 10 10 10 10 10 10 9 10 9 8
9 10 9 9 9 9 9 9 9 9 9 9 8 8 11 8 6 7 7 8 9 9 9 10 10 10 11 11 11 11 12 11 11 11 10 10 10 10 10 10 10 9 9
10 10 10 10 9 11 11 9 8 9 9 8 8 7 7 6 6 6 7 7 7 8 8 8 9 9 9 10 10 11 12 12 11 11 11 11 10 10 10 11 11 11 10
10 10 11 10 9 9 9 9 9 9 9 8 8 7 7 6 6 6 6 6 6 7 7 8 9 11 12 11 10 12 12 12 12 12 13 11 11 10 10 10 11 12 11
10 10 10 10 9 9 9 9 9 8 8 8 7 7 7 6 6 6 6 6 6 7 8 8 8 9 12 13 11 12 15 17 16 13 12 11 11 11 11 11 10 10 10
10 10 10 9 9 9 9 9 9 8 8 7 7 7 6 6 6 5 5 5 5 5 6 6 7 9 9 11 13 15 16 18 19 18 13 10 11 10 11 9 11 10 10
Wind_Direction
23 15 14 15 26 175 185 185 180 176 173 175 174 173 176 179 180 180 183 181 189 192 193 201 206 204 210 214 215 223 229 235 248 219 152 160 171 169 157 141 114 88 75
7 2 3 358 345 227 196 186 181 179 177 176 174 175 178 181 184 186 185 189 195 196 196 198 203 200 209 210 214 218 220 223 242 229 173 168 177 174 160 148 120 89 76
360 352 348 337 311 264 219 196 191 187 180 177 178 181 182 184 187 190 190 194 200 201 200 202 202 201 203 202 207 213 215 217 229 226 182 157 151 160 156 147 137 109 91
350 343 335 325 310 284 247 217 205 198 191 187 187 187 186 185 186 186 190 194 196 198 199 202 201 203 204 200 204 209 211 214 213 211 192 168 159 161 172 177 182 174 164
341 335 328 317 300 274 248 227 214 206 202 196 191 189 188 189 189 187 189 193 193 192 192 193 192 188 191 197 202 205 207 212 208 207 201 179 177 177 192 182 183 168 170
335 330 326 316 300 275 252 234 221 214 208 202 199 196 195 196 189 191 191 192 192 192 189 185 178 176 180 184 188 196 210 216 211 209 211 210 201 193 175 174 168 181 198
329 325 321 314 302 287 265 243 230 223 216 212 208 204 204 199 190 193 195 195 193 192 188 182 181 181 179 177 168 161 160 149 244 233 226 218 202 193 179 180 185 201 191
326 322 318 310 301 291 274 255 243 231 222 217 213 210 209 202 195 195 193 196 195 193 192 191 187 183 183 179 176 175 174 168 188 227 235 221 197 172 178 182 172 154 130
324 320 315 307 298 289 275 262 251 238 230 225 218 213 211 206 200 197 191 193 196 197 195 196 196 192 187 185 184 183 184 173 134 115 103 119 125 141 151 147 156 171 187
320 313 308 301 293 286 278 269 255 241 235 228 224 218 215 212 203 200 195 196 198 196 195 198 203 201 191 190 193 194 199 191 172 156 144 137 141 144 160 182 177 183 183
313 308 304 299 292 287 281 270 256 244 238 232 227 223 220 218 209 205 201 199 200 197 196 198 201 201 201 198 201 207 203 188 181 178 172 165 159 157 161 158 159 175 181
309 305 302 299 295 286 279 271 257 244 239 235 231 228 223 218 215 210 208 207 203 200 201 200 199 198 202 201 200 200 190 184 184 186 189 188 184 176 162 150 135 114 94
308 304 302 300 294 286 277 270 259 244 239 237 231 229 226 217 214 214 213 211 209 205 204 198 193 195 198 203 204 196 190 191 191 196 199 196 184 165 151 143 136 128 118
304 303 301 299 295 289 277 265 256 247 240 238 234 232 229 219 212 206 209 212 209 208 199 195 195 196 198 200 197 198 200 199 199 203 199 187 168 165 177 176 178 177 183
301 300 298 295 293 290 282 269 259 254 248 244 240 234 229 227 218 206 200 203 199 194 178 177 184 188 195 198 200 200 198 197 203 203 194 187 183 184 186 184 185 187 200
296 297 295 293 292 290 288 284 264 256 259 255 251 245 240 237 227 215 211 209 202 190 180 186 192 196 199 198 199 200 200 201 200 197 196 195 193 192 189 184 190 200 208
290 292 291 291 290 290 289 288 288 278 263 258 254 248 244 241 233 222 215 211 207 196 196 198 200 201 202 201 201 201 202 200 195 196 197 197 195 195 194 194 196 204 211
289 288 287 286 286 287 287 286 284 284 284 279 262 253 249 245 235 223 215 207 207 204 204 204 204 203 202 202 202 203 201 196 195 198 198 197 196 196 199 201 202 205 208
287 286 286 285 283 283 285 284 282 279 276 277 279 266 252 247 234 224 212 208 205 204 204 205 205 203 203 202 202 200 199 198 196 196 198 198 197 198 203 204 204 205 207
283 281 284 285 283 282 282 282 282 281 277 273 269 268 260 242 231 219 213 210 209 209 206 206 205 203 201 200 199 198 198 199 198 199 199 198 197 199 204 203 203 203 207
285 284 283 281 278 278 280 280 281 280 277 274 270 266 259 250 236 225 217 213 211 210 208 206 205 203 201 198 197 198 198 200 200 199 199 197 196 198 202 203 204 205 206
283 282 281 280 280 277 277 277 277 277 278 277 280 276 267 259 243 231 224 219 215 211 207 206 206 204 200 197 196 197 200 202 200 198 198 197 196 198 198 200 200 200 202
282 282 282 279 278 278 278 276 275 276 277 278 278 278 274 261 250 239 230 224 218 213 207 205 206 205 201 198 197 197 201 203 200 195 195 195 195 196 196 199 199 198 200
282 281 282 282 281 278 278 277 274 274 275 275 274 272 272 268 259 249 239 229 223 217 210 207 207 206 199 197 199 201 205 201 193 194 192 193 194 194 195 198 199 200 201
283 281 281 282 281 281 282 280 276 273 274 274 274 274 273 271 266 259 247 233 222 218 212 208 207 205 203 198 197 199 202 198 192 190 190 193 194 193 193 195 196 195 197
287 285 283 282 281 281 280 280 279 276 276 277 276 275 275 273 269 264 253 238 225 217 210 207 203 198 195 199 200 199 199 200 198 193 188 190 192 192 191 193 194 195 194
Height
1479 1479 1479 1480 1480 1480 1481 1481 1482 1483 1485 1486 1488 1490 1492 1493 1495 1496 1497 1498 1499 1499 1499 1499 1499 1498 1498 1498 1498 1498 1499 1500 1500 1500 1500 1500 1500 1501 1501 1501 1501 1501 1501
1478 1478 1478 1477 1477 1478 1478 1478 1479 1480 1481 1482 1484 1486 1487 1489 1490 1491 1492 1493 1493 1494 1493 1493 1493 1493 1493 1493 1493 1493 1494 1494 1496 1496 1496 1496 1496 1497 1498 1498 1498 1498 1498
1476 1476 1476 1475 1475 1475 1475 1475 1476 1477 1477 1479 1480 1482 1483 1484 1486 1486 1487 1488 1488 1488 1488 1488 1488 1488 1488 1488 1488 1488 1489 1490 1490 1491 1491 1492 1493 1493 1494 1494 1495 1495 1495
1475 1474 1474 1473 1472 1472 1472 1472 1473 1473 1474 1475 1476 1478 1479 1480 1481 1481 1482 1483 1483 1483 1483 1483 1482 1483 1483 1483 1483 1484 1484 1485 1486 1487 1487 1488 1488 1489 1490 1491 1491 1491 1491
1473 1472 1471 1470 1470 1469 1469 1469 1469 1470 1470 1471 1472 1473 1474 1475 1476 1476 1477 1477 1477 1477 1477 1477 1477 1478 1478 1478 1479 1479 1480 1481 1481 1482 1483 1484 1484 1485 1486 1487 1488 1488 1488
1470 1469 1467 1466 1466 1465 1465 1465 1465 1465 1465 1466 1467 1467 1468 1469 1470 1471 1472 1472 1472 1472 1472 1472 1472 1473 1473 1474 1475 1475 1476 1477 1477 1478 1479 1480 1480 1482 1482 1483 1484 1485 1485
1467 1465 1464 1462 1461 1460 1460 1460 1460 1460 1460 1460 1461 1462 1462 1464 1465 1465 1466 1466 1466 1467 1467 1467 1468 1468 1469 1470 1470 1470 1471 1472 1473 1475 1475 1476 1477 1478 1479 1480 1480 1481 1482
1463 1461 1459 1458 1456 1455 1455 1454 1454 1454 1454 1454 1455 1456 1456 1457 1459 1459 1460 1461 1461 1461 1462 1462 1463 1464 1465 1466 1466 1467 1467 1468 1469 1470 1471 1472 1473 1474 1475 1476 1477 1478 1479
1460 1457 1455 1454 1452 1451 1450 1449 1448 1448 1448 1448 1448 1449 1450 1451 1452 1453 1454 1455 1455 1456 1456 1457 1458 1459 1460 1461 1463 1463 1464 1464 1465 1466 1467 1468 1469 1470 1471 1473 1474 1475 1476
1455 1453 1451 1449 1447 1445 1444 1443 1442 1442 1441 1441 1442 1442 1443 1444 1446 1447 1447 1448 1449 1450 1451 1452 1453 1454 1456 1457 1458 1459 1460 1461 1462 1462 1464 1464 1465 1467 1468 1470 1471 1472 1473
1451 1448 1446 1444 1441 1440 1438 1437 1436 1435 1435 1435 1435 1435 1436 1437 1439 1440 1440 1442 1443 1444 1445 1447 1448 1450 1451 1453 1454 1455 1456 1458 1458 1459 1460 1461 1462 1464 1465 1467 1468 1470 1471
1446 1443 1441 1438 1436 1434 1432 1431 1429 1429 1428 1428 1428 1428 1429 1430 1431 1432 1434 1435 1437 1439 1440 1442 1443 1445 1447 1448 1450 1451 1453 1454 1455 1456 1457 1458 1460 1461 1462 1464 1465 1467 1468
1441 1438 1435 1432 1430 1428 1426 1424 1423 1422 1421 1421 1421 1421 1422 1423 1424 1425 1427 1429 1431 1433 1435 1437 1439 1440 1442 1444 1446 1447 1449 1450 1451 1453 1454 1455 1457 1458 1460 1461 1463 1464 1466
1436 1432 1429 1426 1424 1422 1420 1418 1416 1415 1414 1414 1414 1414 1415 1415 1416 1418 1420 1422 1424 1427 1429 1431 1433 1435 1437 1439 1441 1443 1444 1446 1447 1449 1451 1452 1454 1455 1457 1459 1460 1461 1463
1430 1427 1423 1420 1417 1415 1413 1411 1409 1408 1408 1407 1407 1407 1407 1407 1409 1411 1412 1415 1417 1420 1423 1425 1427 1429 1431 1433 1435 1437 1439 1441 1443 1445 1447 1448 1450 1452 1454 1455 1457 1458 1460
1424 1421 1418 1414 1411 1409 1406 1404 1402 1401 1400 1400 1399 1400 1400 1401 1402 1403 1405 1408 1411 1414 1416 1418 1420 1422 1425 1427 1429 1432 1434 1436 1438 1441 1442 1444 1446 1448 1450 1452 1453 1455 1456
1419 1415 1412 1409 1406 1403 1400 1397 1395 1393 1393 1392 1392 1392 1392 1393 1394 1396 1398 1401 1404 1406 1408 1410 1413 1416 1419 1421 1424 1426 1428 1431 1434 1436 1438 1440 1442 1444 1446 1447 1449 1450 1451
1412 1409 1406 1403 1400 1397 1394 1392 1390 1387 1385 1384 1385 1385 1385 1386 1387 1389 1392 1394 1396 1399 1401 1403 1406 1409 1412 1415 1417 1420 1423 1425 1428 1430 1432 1435 1437 1439 1440 1442 1444 1445 1447
1406 1403 1400 1397 1394 1391 1389 1386 1384 1382 1380 1378 1378 1378 1378 1379 1380 1382 1384 1386 1388 1391 1393 1396 1399 1402 1405 1408 1411 1414 1417 1419 1422 1424 1427 1429 1431 1433 1435 1437 1439 1440 1441
1400 1397 1394 1391 1388 1385 1383 1380 1378 1376 1375 1373 1372 1372 1372 1373 1373 1375 1377 1379 1382 1384 1387 1389 1392 1395 1398 1401 1404 1407 1410 1413 1415 1418 1420 1423 1425 1427 1429 1431 1433 1434 1435
1393 1390 1387 1385 1382 1379 1377 1375 1373 1371 1369 1368 1367 1366 1367 1367 1367 1369 1370 1372 1375 1377 1380 1383 1385 1388 1391 1394 1397 1400 1403 1406 1409 1411 1414 1416 1419 1421 1423 1425 1427 1428 1430
1387 1384 1381 1379 1376 1374 1371 1369 1367 1365 1364 1362 1361 1361 1361 1361 1361 1362 1364 1366 1368 1371 1373 1376 1379 1381 1384 1387 1390 1393 1396 1399 1402 1404 1407 1410 1412 1414 1416 1418 1420 1422 1423
1381 1378 1375 1373 1370 1368 1366 1364 1362 1360 1359 1357 1356 1356 1355 1355 1356 1357 1358 1360 1362 1364 1367 1369 1372 1374 1377 1380 1383 1386 1389 1392 1395 1398 1400 1403 1405 1407 1409 1411 1413 1415 1416
1375 1372 1369 1367 1365 1362 1360 1358 1357 1355 1353 1352 1351 1351 1350 1350 1351 1351 1353 1354 1356 1358 1360 1363 1365 1367 1370 1373 1376 1379 1382 1385 1388 1390 1393 1395 1398 1400 1402 1404 1406 1408 1410
1369 1366 1364 1361 1359 1357 1355 1353 1351 1350 1349 1347 1346 1346 1345 1345 1345 1346 1347 1348 1350 1352 1354 1356 1359 1361 1364 1366 1369 1372 1375 1378 1381 1383 1386 1388 1390 1393 1395 1397 1399 1401 1403
1363 1360 1358 1356 1353 1352 1350 1348 1346 1345 1344 1343 1342 1341 1341 1341 1341 1341 1342 1343 1345 1346 1348 1350 1353 1355 1358 1360 1363 1366 1368 1371 1374 1377 1379 1381 1383 1386 1388 1390 1392 1394 1396